DW6162 Weather Reports


Display with metric or nautical units.
time (UTC)temp
F
wind
direction
speed
MPH
gust
MPH
rain 1hr
in
rain 24hr
in
rain mn
in
humidity
%
barometer
mb
20260506131603 53 166 4.0 8.0 0.08 0.65 0.53 98 1005.6
20260506131525 52 158 4.0 9.0 0.08 0.65 0.53 98 1004.2
20260506130711 53 157 3.0 7.0 0.09 0.64 0.52 98 1005.8
20260506130124 53 167 4.0 7.0 0.09 0.63 0.51 98 1004.5
20260506124857 53 163 4.0 6.0 0.12 0.62 0.50 98 1006.0
20260506124604 53 187 4.0 7.0 0.13 0.62 0.50 98 1004.4
20260506123103 53 172 4.0 9.0 0.13 0.60 0.48 98 1004.4
20260506123048 53 162 5.0 9.0 0.13 0.60 0.48 98 1006.0
20260506122203 53 164 4.0 7.0 0.13 0.58 0.46 98 1006.2
20260506121504 53 190 4.0 9.0 0.13 0.56 0.45 98 1004.8
20260506120357 53 156 4.0 10.0 0.13 0.54 0.42 98 1006.5
20260506120104 53 150 4.0 10.0 0.13 0.54 0.42 98 1004.9
20260506114558 53 159 3.0 6.0 0.10 0.48 0.36 98 1006.3
20260506114508 53 154 3.0 6.0 0.11 0.49 0.37 98 1004.7
20260506113705 53 158 3.0 6.0 0.10 0.47 0.35 98 1006.1
20260506113103 53 167 3.0 10.0 0.11 0.47 0.35 98 1004.5
20260506112747 53 158 4.0 9.0 0.12 0.47 0.35 98 1005.9
20260506111854 53 163 4.0 9.0 0.10 0.44 0.33 98 1005.9
20260506111520 52 156 3.0 9.0 0.11 0.44 0.32 98 1004.3
20260506110047 53 162 4.0 8.0 0.10 0.41 0.29 98 1006.0
20260506110004 53 163 3.0 8.0 0.10 0.41 0.28 98 1004.5
20260506104502 53 176 2.0 8.0 0.08 0.38 0.26 98 1004.4
20260506103347 53 159 3.0 5.0 0.10 0.36 0.24 98 1006.0
20260506103054 53 174 2.0 5.0 0.07 0.36 0.24 98 1004.4
20260506102458 53 151 2.0 4.0 0.10 0.35 0.23 98 1006.1
20260506101626 53 152 4.0 5.0 0.10 0.32 0.20 98 1006.3
20260506101521 53 128 1.0 5.0 0.05 0.33 0.21 98 1004.7
20260506100717 53 158 6.0 9.0 0.09 0.31 0.19 98 1006.2
20260506100125 53 155 4.0 11.0 0.06 0.32 0.20 98 1004.7
20260506095211 53 166 4.0 5.0 0.07 0.28 0.16 98 1006.3
20260506094612 53 178 5.0 10.0 0.07 0.31 0.18 98 1004.7
20260506094317 53 157 3.0 5.0 0.08 0.27 0.15 97 1006.2
20260506093342 53 151 3.0 5.0 0.08 0.26 0.14 97 1006.2
20260506093135 52 135 3.0 7.0 0.08 0.30 0.17 98 1004.7
20260506092233 53 154 3.0 4.0 0.06 0.24 0.11 97 1006.1
20260506091520 52 139 4.0 6.0 0.09 0.28 0.16 98 1004.7
20260506091438 53 150 3.0 4.0 0.05 0.23 0.10 97 1006.2
20260506090009 52 134 2.0 8.0 0.09 0.27 0.14 97 1005.1
20260506085539 53 154 3.0 4.0 0.09 0.22 0.09 96 1006.6
20260506084708 53 166 3.0 4.0 0.08 0.21 0.08 96 1006.6
20260506084636 52 158 3.0 7.0 0.08 0.24 0.11 97 1005.1
20260506083717 54 154 3.0 6.0 0.06 0.19 0.06 91 1006.8
20260506083155 52 184 3.0 8.0 0.07 0.22 0.09 96 1005.4
20260506082949 54 156 3.0 6.0 0.06 0.19 0.06 91 1006.9
20260506082135 54 160 3.0 4.0 0.05 0.18 0.05 90 1006.9
20260506081630 53 177 3.0 6.0 0.05 0.20 0.07 93 1005.3
20260506080215 56 149 2.0 3.0 0.01 0.14 0.01 85 1007.1
20260506073416 54 0 0.0 0.0 0.00 0.13 0.00 92 1006.8
20260506073343 54 0 0.0 0.0 0.00 0.13 0.00 92 1006.9
20260506073116 56 133 3.0 7.0 0.02 0.15 0.02 83 1005.4
20260506072212 55 0 0.0 0.0 0.00 0.13 0.00 91 1006.7
20260506062424 60 192 3.0 4.0 0.00 0.13 0.00 73 1006.8
20260506061612 54 326 0.0 1.0 0.00 0.13 0.00 91 1005.4
20260506061337 60 142 1.0 2.0 0.00 0.13 0.00 77 1006.9
20260506060949 60 164 1.0 3.0 0.00 0.13 0.00 76 1007.0
20260506051252 57 177 0.0 3.0 0.00 0.13 0.00 83 1008.0
20260506044253 56 208 0.0 1.0 0.00 0.13 0.00 86 1008.2
20260506043408 56 0 0.0 0.0 0.00 0.13 0.00 86 1008.1
20260506043046 56 171 0.0 2.0 0.00 0.13 0.00 84 1006.6
20260506042532 56 0 0.0 0.0 0.00 0.13 0.00 86 1008.0
20260506041636 56 32 0.0 0.0 0.00 0.13 0.00 86 1006.5
20260506041558 56 0 0.0 0.0 0.00 0.13 0.00 86 1007.9
20260506040738 56 0 0.0 0.0 0.00 0.13 0.00 86 1008.0
20260506035748 57 0 0.0 0.0 0.00 0.13 0.13 85 1008.0
20260506034858 57 61 0.0 2.0 0.00 0.13 0.13 85 1008.0
20260506034503 57 32 0.0 2.0 0.00 0.13 0.13 84 1006.3
20260506033954 57 0 0.0 0.0 0.00 0.13 0.13 84 1008.0
20260506033055 57 0 0.0 0.0 0.00 0.13 0.13 84 1008.0
20260506033004 57 86 0.0 1.0 0.00 0.13 0.13 84 1006.3
20260506032157 58 86 0.0 1.0 0.00 0.13 0.13 84 1008.0
20260506031516 57 86 0.0 1.0 0.00 0.13 0.13 84 1006.4
20260506031250 58 86 0.0 1.0 0.00 0.13 0.13 84 1008.1
20260506030358 58 86 0.0 1.0 0.00 0.13 0.13 83 1008.4
20260506030015 58 86 0.0 0.0 0.00 0.13 0.13 83 1006.7
20260506025456 58 0 0.0 0.0 0.00 0.13 0.13 82 1008.3
20260506024508 59 86 0.0 1.0 0.00 0.13 0.13 80 1006.6
20260506023105 59 86 0.0 1.0 0.00 0.13 0.13 78 1006.8
20260506022809 61 0 0.0 0.0 0.00 0.13 0.13 75 1008.5
20260506021911 61 0 0.0 0.0 0.00 0.13 0.13 73 1008.5
20260506021609 61 86 0.0 1.0 0.00 0.13 0.13 73 1006.9
20260506020111 62 86 0.0 2.0 0.00 0.13 0.13 70 1006.8
20260506020058 62 139 1.0 1.0 0.00 0.13 0.13 70 1008.5
20260506015217 63 145 1.0 2.0 0.00 0.13 0.13 70 1008.4
20260506014603 62 167 0.0 3.0 0.00 0.13 0.13 70 1006.8
20260506014313 63 150 2.0 2.0 0.00 0.13 0.13 69 1008.4
20260506013415 63 132 1.0 3.0 0.00 0.13 0.13 69 1008.4
20260506013146 62 134 1.0 3.0 0.00 0.13 0.13 69 1006.8
20260506011627 63 149 2.0 5.0 0.00 0.13 0.13 68 1008.5
20260506011543 62 145 0.0 4.0 0.00 0.13 0.13 69 1006.8
20260506010106 62 145 2.0 5.0 0.00 0.13 0.13 67 1006.7
20260506005917 63 164 3.0 6.0 0.00 0.13 0.13 67 1008.3
20260506004916 63 164 3.0 6.0 0.00 0.13 0.13 67 1008.2
20260506003952 63 164 3.0 6.0 0.00 0.13 0.13 67 1008.0
20260506003058 63 156 2.0 3.0 0.00 0.13 0.13 66 1008.0
20260506003040 62 156 2.0 4.0 0.00 0.13 0.13 67 1006.4
20260506002220 63 149 1.0 2.0 0.00 0.13 0.13 66 1007.9
20260506001620 62 153 2.0 4.0 0.00 0.13 0.13 66 1006.3
20260506001303 63 148 1.0 2.0 0.00 0.13 0.13 66 1007.9
20260506000438 63 146 1.0 2.0 0.00 0.13 0.13 65 1007.9
20260506000144 62 147 0.0 3.0 0.00 0.13 0.13 65 1006.2
20260505235506 64 132 0.0 2.0 0.00 0.13 0.13 63 1007.8
20260505234519 63 134 0.0 2.0 0.00 0.13 0.13 64 1005.9
20260505233816 64 86 1.0 3.0 0.00 0.13 0.13 63 1007.5
20260505231916 64 124 1.0 4.0 0.00 0.13 0.13 69 1007.6
20260505231114 64 118 1.0 4.0 0.00 0.13 0.13 69 1007.7
20260505230122 64 118 1.0 4.0 0.00 0.13 0.13 68 1007.6
20260505225149 64 84 0.0 2.0 0.00 0.13 0.13 70 1007.7
20260505224328 65 171 0.0 2.0 0.00 0.13 0.13 69 1007.8
20260505223353 65 146 1.0 4.0 0.00 0.13 0.13 68 1007.7
20260505223003 64 259 1.0 3.0 0.00 0.13 0.13 70 1006.0
20260505222446 65 131 1.0 5.0 0.00 0.13 0.13 69 1007.6
20260505221605 64 243 0.0 4.0 0.00 0.13 0.13 70 1005.8
20260505220646 65 8 1.0 4.0 0.00 0.13 0.13 69 1007.4
20260505220008 65 89 0.0 3.0 0.00 0.13 0.13 69 1005.7
20260505215747 65 3 1.0 4.0 0.00 0.13 0.13 69 1007.5
20260505214846 65 334 3.0 6.0 0.00 0.13 0.13 68 1007.3
20260505214606 65 41 2.0 6.0 0.00 0.13 0.13 70 1005.7
20260505213946 66 329 3.0 6.0 0.00 0.13 0.13 68 1007.3
20260505213046 66 345 2.0 10.0 0.00 0.13 0.13 68 1007.3
20260505213002 66 302 2.0 11.0 0.00 0.13 0.13 67 1005.5
20260505212147 66 110 2.0 5.0 0.00 0.13 0.13 67 1007.1
20260505211604 65 226 1.0 6.0 0.00 0.13 0.13 68 1005.2
20260505210346 65 149 1.0 6.0 0.00 0.13 0.13 70 1007.0
20260505210003 64 314 2.0 5.0 0.00 0.13 0.13 70 1005.2
20260505205446 64 104 2.0 6.0 0.00 0.13 0.13 71 1007.0
20260505204602 64 177 2.0 8.0 0.00 0.13 0.13 70 1005.1
20260505203647 66 166 4.0 10.0 0.00 0.13 0.13 69 1007.1
20260505203011 66 150 3.0 5.0 0.00 0.13 0.13 66 1005.3
20260505202746 67 89 2.0 8.0 0.00 0.13 0.13 65 1007.0
20260505201846 68 63 2.0 8.0 0.00 0.13 0.13 63 1007.0
20260505201602 68 108 2.0 4.0 0.00 0.13 0.13 63 1005.1
20260505200046 68 113 3.0 8.0 0.00 0.13 0.13 62 1006.9
20260505200005 68 95 3.0 9.0 0.00 0.13 0.13 62 1005.1
20260505195146 69 117 3.0 7.0 0.00 0.13 0.13 62 1007.0
20260505194603 68 92 2.0 6.0 0.00 0.13 0.13 66 1005.4
20260505194246 68 133 2.0 7.0 0.00 0.13 0.13 68 1007.4
20260505193346 68 81 2.0 6.0 0.00 0.13 0.13 70 1007.4
20260505193005 67 262 1.0 4.0 0.00 0.13 0.13 71 1005.5
20260505192446 66 127 2.0 6.0 0.00 0.13 0.13 77 1007.4
20260505191607 66 162 1.0 6.0 0.00 0.13 0.13 78 1005.6
20260505191546 66 130 2.0 6.0 0.00 0.13 0.13 78 1007.5
20260505190646 65 113 1.0 5.0 0.00 0.13 0.13 80 1007.6
20260505190005 63 116 1.0 5.0 0.01 0.13 0.13 84 1005.9
20260505185746 64 94 1.0 7.0 0.06 0.13 0.13 86 1007.7
20260505184606 61 117 1.0 4.0 0.12 0.13 0.13 86 1006.0
20260505183946 61 137 1.0 2.0 0.12 0.13 0.13 92 1007.8
20260505183047 59 102 1.0 3.0 0.12 0.13 0.13 89 1007.5
20260505183002 59 131 1.0 3.0 0.12 0.13 0.13 89 1005.8
20260505181603 59 336 0.0 5.0 0.12 0.13 0.13 88 1005.9
20260505181301 60 54 2.0 7.0 0.12 0.13 0.13 87 1007.8
20260505180347 60 28 3.0 9.0 0.11 0.12 0.12 82 1008.1
20260505180020 61 138 2.0 8.0 0.10 0.11 0.11 78 1006.1
20260505175536 66 47 3.0 8.0 0.02 0.03 0.03 67 1007.7
20260505174551 69 152 5.0 9.0 0.00 0.01 0.01 53 1006.8
20260505174507 68 135 4.0 10.0 0.00 0.01 0.01 53 1005.1
20260505173649 70 155 6.0 12.0 0.00 0.01 0.01 51 1006.5
20260505172753 70 155 5.0 14.0 0.00 0.01 0.01 52 1006.5
20260505171852 69 143 5.0 9.0 0.00 0.01 0.01 52 1006.6
20260505171507 69 141 4.0 9.0 0.00 0.01 0.01 53 1005.1
20260505171107 69 162 5.0 13.0 0.00 0.01 0.01 54 1006.7
20260505170105 69 173 3.0 10.0 0.00 0.01 0.01 53 1005.2
20260505170046 70 147 5.0 10.0 0.00 0.01 0.01 53 1007.0
20260505165146 70 126 4.0 8.0 0.00 0.01 0.01 53 1007.0
20260505164605 69 79 3.0 8.0 0.00 0.01 0.01 54 1005.5
20260505164246 69 159 5.0 12.0 0.00 0.01 0.01 53 1007.4
20260505163346 69 159 7.0 17.0 0.00 0.01 0.01 54 1007.2
20260505163002 69 169 6.0 17.0 0.00 0.01 0.01 53 1005.4
20260505162446 70 158 4.0 12.0 0.00 0.01 0.01 54 1006.9
20260505161603 69 186 4.0 10.0 0.00 0.01 0.01 57 1005.2
20260505161546 69 163 6.0 18.0 0.00 0.01 0.01 57 1006.9
20260505153046 67 134 4.0 7.0 0.00 0.01 0.01 61 1007.9
20260505153002 66 133 3.0 8.0 0.00 0.01 0.01 61 1006.1
20260505152146 67 133 4.0 8.0 0.00 0.01 0.01 60 1008.0
20260505151604 67 169 4.0 8.0 0.00 0.01 0.01 61 1006.4
20260505151246 67 140 4.0 10.0 0.00 0.01 0.01 59 1008.1
20260505150346 67 141 4.0 12.0 0.00 0.01 0.01 60 1008.1